User: anonymous   Login
Location: Lincolnton
(35.4660°N, 81.2500°W)
Time: 03:44:05
(UTC-04:00)
Language:

Hubble Space Telescope - Orbit

View from above orbital plane
View from above orbital plane
View from above satellite
View from above satellite

Ground track
Ground track

The orbit data is extracted from the following two-line orbital elements,

1 20580U 90037B   15153.56682870  .00001262  00000-0  69828-4 0  9999
2 20580 028.4698 250.5394 0003227 082.2239 130.6270 15.07424215177603
Epoch (UTC): 02 June 2015 13:36:14
Eccentricity: 0.0003227
inclination: 28.4698°
perigee height: 542 km
apogee height: 546 km
right ascension of ascending node: 250.5394°
argument of perigee: 82.2239°
revolutions per day: 15.07424215
mean anomaly at epoch: 130.6270°
orbit number at epoch: 17760

The dashed part of the orbit path shows where the satellite is in the earth's shadow,  

DLR